Terminal Aerodrome Forecast
Issued by NWS Boise, ID

Home | Current Version | Previous Version | Text Only | Print | Product List | Glossary On
Versions: 1 2 3 4 5 6 7 8 9 10 11 12 13 14 15 16 17 18 19 20 21 22 23
000
FTUS45 KBOI 230144 AAA
TAFBNO
TAF AMD
KBNO 230144Z 2302/2324 20010G20KT P6SM -TSRA BKN060CB
     FM230400 22008KT P6SM BKN200
     FM230700 VRB05KT P6SM SCT090
     FM231900 15009KT P6SM BKN150
      AMD NOT SKED=

USA.gov is the U.S. government's official web portal to all federal, state and local government web resources and services.